Location: Altmatt
(47.1333°N, 8.7000°E)
Time: 16:42:08
(UTC+00:00)

Meteor 2-3 Rocket - Pass Details

Date: 13 July 2020
Orbit: 843 x 884 km, 81.2° (Epoch: 12 August)

Event Time Altitude Azimuth Distance (km) Brightness Sun altitude
Exits shadow 22:15:35 33° 182° (S) 1,428 4.4 -19.1°
Maximum altitude 22:18:18 81° 100° (E) 884 3.7 -19.3°
Drops below altitude 10° 22:24:05 10° 13° (NNE) 2,536 7.1 -19.6°
Sets 22:26:32 0° 13° (NNE) 3,484 8.0 -19.7°
